This is the latest recevied weather packets stored in our database for station/object DC4AT. If no packets are shown the sender has not sent any weather packets the latest 10 day(s).
| Time | Temp. | Humidity | Pressure | Rain* | Wind** | Luminosity | Snow |
|---|---|---|---|---|---|---|---|
| 1787914654 | 23.89° C | 72% | 1008.7 hPa | 0 mm | - | 100 W/m² | - |
| 1787914054 | 23.89° C | 72% | 1008.8 hPa | 0 mm | - | 132 W/m² | - |
| 1787913454 | 23.89° C | 71% | 1008.7 hPa | 0 mm | - | 148 W/m² | - |
| 1787912854 | 24.44° C | 71% | 1008.3 hPa | 0 mm | - | 216 W/m² | - |
| 1787912254 | 23.89° C | 71% | 1008 hPa | 0 mm | - | 269 W/m² | - |
| 1787911654 | 23.89° C | 71% | 1008 hPa | 0 mm | - | 258 W/m² | - |
| 1787911054 | 24.44° C | 70% | 1008.1 hPa | 0 mm | - | 244 W/m² | - |
| 1787910454 | 24.44° C | 72% | 1008 hPa | 0 mm | - | 278 W/m² | - |
| 1787909854 | 23.89° C | 72% | 1008.1 hPa | 0 mm | - | 448 W/m² | - |
| 1787909254 | 23.89° C | 72% | 1007.9 hPa | 0 mm | - | 258 W/m² | - |
| 1787908654 | 23.89° C | 76% | 1007.8 hPa | 0 mm | - | 346 W/m² | - |
| 1787908054 | 23.33° C | 78% | 1007.9 hPa | 0 mm | - | 329 W/m² | - |
| 1787907454 | 23.33° C | 78% | 1008.3 hPa | 0 mm | - | 216 W/m² | - |
| 1787906854 | 22.78° C | 80% | 1008.3 hPa | 0 mm | - | 468 W/m² | - |
| 1787906254 | 22.22° C | 81% | 1008.6 hPa | 0 mm | - | 211 W/m² | - |
| 1787905654 | 22.22° C | 81% | 1008.6 hPa | 0 mm | - | 188 W/m² | - |
| 1787905055 | 22.22° C | 81% | 1008.5 hPa | 0 mm | - | 135 W/m² | - |
| 1787904455 | 21.67° C | 82% | 1008.3 hPa | 0 mm | - | 130 W/m² | - |
| 1787903855 | 21.67° C | 82% | 1008.3 hPa | 0 mm | - | 111 W/m² | - |
| 1787903255 | 21.11° C | 83% | 1008.2 hPa | 0 mm | - | 135 W/m² | - |
| 1787902655 | 21.11° C | 83% | 1008.7 hPa | 0 mm | - | 186 W/m² | - |
| 1787902055 | 21.11° C | 83% | 1008.6 hPa | 0 mm | - | 148 W/m² | - |
| 1787901455 | 20.56° C | 84% | 1008.7 hPa | 0 mm | - | 135 W/m² | - |
| 1787900855 | 20° C | 85% | 1008.2 hPa | 0 mm | - | 134 W/m² | - |
| 1787900255 | 20° C | 84% | 1008.3 hPa | 0 mm | - | 142 W/m² | - |
* Rain latest hour (hover to see other rain measurements)
** Current wind speed in m/s (hover to see current wind gust speed)